Flag for China Weather past 2 weeks in Suzhou, Jiangsu, China

Now
84 °F

Passing clouds.


Feels Like: 87 °F
Forecast: 72 / 87 °F
Wind: 8 mph from Northwest

Location: Shanghai Hongqiao Airport

Current Time: Sep 3, 2015 at 10:53:16 AM

Latest Report: Sep 3, 2015 at 10:00 AM


Visibility: N/A

Pressure: 29.95 "Hg

Humidity: 55%

Dew point: 66 °F

Location of SuzhouLocation

Historic Weather in Suzhou — Graph

°F

Suzhou temperature yesterday

Maximum temperature yesterday: 90 °F (at 1:00 PM)
Minimum temperature yesterday: 77 °F (at 5:00 AM)
Average temperature yesterday: 82 °F

Past Weeks' High & Low Weather Summary

 TemperatureHumidityPressure
High93 °F (Aug 19, 12:30 PM)100% (Aug 22, 9:00 AM)29.95 "Hg (Aug 22, 9:00 AM)
Low72 °F (Aug 24, 1:00 PM)43% (Aug 27, 2:00 PM)29.53 "Hg (Aug 24, 5:30 AM)
Average80 °F78%29.75 "Hg
* Reported Aug 19 9:00 AM — Sep 3 9:30 AM, Suzhou, Weather by CustomWeather, © 2015

Note: Actual official high and low records may vary slightly from our data, if they occured in-between our weather recording intervals... More about our weather records

Advertising

Suzhou weather history for previous 24 hours

 ConditionsComfort  
Time TempWeatherWind HumidityBarometerVisibility
9:30 AM
Thu, Sep 3
82 °FPassing clouds.10 mph58%29.95 "HgN/A
9:00 AM82 °FClear.13 mph58%29.95 "Hg5 mi
8:30 AM81 °FClear.10 mph62%29.95 "Hg5 mi
8:00 AM79 °FClear.10 mph70%29.92 "Hg5 mi
7:30 AM79 °FClear.8 mph70%29.92 "Hg5 mi
7:00 AM77 °FClear.8 mph69%29.92 "Hg5 mi
6:30 AM75 °FClear.6 mph78%29.92 "Hg5 mi
5:30 AM73 °FClear.6 mph83%29.92 "Hg5 mi
5:00 AM73 °FClear.6 mph83%29.89 "Hg5 mi
4:30 AM75 °FClear.8 mph78%29.89 "Hg5 mi
4:00 AM75 °FClear.8 mph78%29.89 "Hg4 mi
3:30 AM75 °FClear.10 mph83%29.89 "Hg4 mi
3:00 AM75 °FClear.10 mph89%29.89 "Hg4 mi
2:30 AM77 °FClear.10 mph83%29.89 "Hg4 mi
2:00 AM77 °FClear.8 mph79%29.89 "Hg4 mi
1:30 AM79 °FClear.6 mph79%29.89 "Hg4 mi
1:00 AM79 °FClear.3 mph84%29.89 "Hg4 mi
12:30 AM79 °FClear.3 mph84%29.89 "Hg4 mi
11:30 PM
Wed, Sep 2
79 °FClear.3 mph84%29.89 "Hg4 mi
11:00 PM79 °FClear.3 mph84%29.89 "Hg4 mi
10:30 PM79 °FClear.3 mph84%29.89 "Hg5 mi
10:00 PM81 °FPassing clouds.3 mph79%29.89 "Hg5 mi
9:30 PM81 °FPassing clouds.3 mph74%29.89 "Hg5 mi
9:00 PM81 °FPassing clouds.3 mph79%29.89 "Hg5 mi
8:30 PM81 °FPassing clouds.3 mph74%29.89 "Hg5 mi
8:00 PM82 °FPassing clouds.3 mph70%29.89 "Hg5 mi
7:30 PM82 °FPassing clouds.3 mph70%29.86 "Hg5 mi
7:00 PM82 °FPassing clouds.3 mph70%29.86 "Hg5 mi
6:30 PM82 °FPassing clouds.6 mph70%29.83 "Hg5 mi
6:00 PM82 °FPartly sunny.8 mph70%29.83 "Hg5 mi
5:30 PM82 °FPartly sunny.8 mph70%29.83 "Hg5 mi
5:00 PM84 °FPartly sunny.8 mph66%29.83 "Hg5 mi
4:30 PM84 °FPartly sunny.10 mph66%29.83 "Hg5 mi
4:00 PM88 °FPartly sunny.6 mph52%29.83 "Hg5 mi
3:30 PM88 °FPartly sunny.6 mph55%29.83 "Hg5 mi
3:00 PM88 °FScattered clouds.6 mph55%29.83 "Hg5 mi
2:30 PM90 °FScattered clouds.6 mph55%29.83 "Hg5 mi
2:00 PM90 °FScattered clouds.10 mph55%29.83 "Hg5 mi
1:30 PM88 °FScattered clouds.13 mph55%29.83 "Hg5 mi
1:00 PM90 °FPartly sunny.13 mph55%29.83 "Hg5 mi
12:30 PM88 °FPartly sunny.8 mph62%29.86 "Hg4 mi
11:30 AM86 °FScattered clouds.8 mph62%29.86 "Hg4 mi
11:00 AM88 °FScattered clouds.6 mph66%29.86 "Hg3 mi
10:30 AM86 °FFog.3 mph66%29.86 "Hg3 mi
10:00 AM84 °FFog.3 mph74%29.86 "Hg2 mi
Weather by CustomWeather, © 2015

See weather overviewHow to use our weather pages